Regional Weather Roundup
Issued by NWS

Home | Current Version | Previous Version | Text Only | Print | Product List | Glossary On
Versions: 1 2 3 4 5 6 7 8 9 10 11 12 13 14 15 16 17 18 19 20 21 22 23 24 25 26 27 28 29 30 31 32 33 34 35 36 37 38 39 40 41 42 43 44 45 46 47 48 49 50
000
ASUS44 KJAN 251810
RWRMS

MISSISSIPPI HOURLY WEATHER ROUNDUP
NATIONAL WEATHER SERVICE JACKSON MS
100 PM CDT SAT APR 25 2015

NOTE: "FAIR: INDICATES FEW OR NO CLOUDS BELOW 12,000 FEET WITH NO
SIGNIFICANT WEATHER AND/OR OBSTRUCTIONS TO VISIBILITY.

MSZ001>002-007>008-010>013-018>021-025>028-034>036-251900-
NORTHWEST MISSISSIPPI

CITY           SKY/WX    TMP DP  RH WIND       PRES   REMARKS
CLARKSDALE       N/A     75  72  88 SW15      29.64F
CLEVELAND      CLOUDY    75  74  95 SW17      29.67R
GREENWOOD      NOT AVBL
GREENVILLE     CLOUDY    76  72  87 SW15      29.66F FOG
6HR MIN TEMP:  64; 6HR MAX TEMP:  76;

OLIVE BRANCH   PTSUNNY   73  72  94 SW12G21   29.63F
OXFORD         FAIR      75  66  73 SW9G16    29.67F
TUNICA         MOCLDY    75  68  78 SW10      29.64F
$$

MSZ003>006-009-014>017-022>024-029>033-037>039-251900-
NORTHEAST MISSISSIPPI

CITY           SKY/WX    TMP DP  RH WIND       PRES   REMARKS
COLUMBUS AFB   CLOUDY    73  73 100 SW8       29.70R
6HR MIN TEMP:  62; 6HR MAX TEMP:  73;

CORINTH        FAIR      77  64  65 SW14G21   29.63F
GOLDN TRIANGLE CLOUDY    75  70  83 SW9       29.70S
STARKVILLE     CLOUDY    75  70  83 SW7       29.70R
TUPELO         CLOUDY    75  67  76 SW9       29.68S
6HR MIN TEMP:  62; 6HR MAX TEMP:  75;

$$

MSZ040-058-251900-
CENTRAL MISSISSIPPI

CITY           SKY/WX    TMP DP  RH WIND       PRES   REMARKS
JACKSON INTL   CLOUDY    76  69  79 S10       29.72F
6HR MIN TEMP:  66; 6HR MAX TEMP:  78;

JACKSON HAWKNS CLOUDY    76  69  79 SW12G20   29.73F
6HR MIN TEMP:  67; 6HR MAX TEMP:  76;

MERIDIAN KEY   CLOUDY    79  71  76 SW9       29.75S
6HR MIN TEMP:  65; 6HR MAX TEMP:  80;

MERIDIAN NAS   CLOUDY    79  70  74 W7        29.75R
6HR MIN TEMP:  65; 6HR MAX TEMP:  80;

RAYMOND        FAIR      77  72  83 SW9       29.73F HAZE
VICKSBURG      CLOUDY    76  69  79 S10G18    29.70F
6HR MIN TEMP:  66; 6HR MAX TEMP:  77; 6HR PCP: TRACE;

$$

MSZ059>079-251900-
SOUTH MISSISSIPPI

CITY           SKY/WX    TMP DP  RH WIND       PRES   REMARKS
BROOKHAVEN     TSTM     122 N/A N/A S8        29.81F
HATTIESBURG    LGT RAIN  79  73  82 W7        29.80S
6HR MIN TEMP:  73; 6HR MAX TEMP:  82; 6HR PCP:  0.01;

MCCOMB         RAIN      72  69  90 W9        29.83S FOG
6HR MIN TEMP:  72; 6HR MAX TEMP:  78; 6HR PCP:  0.20;

NATCHEZ        CLOUDY    73  70  88 S12G17    29.76F
6HR MIN TEMP:  72; 6HR MAX TEMP:  73; 6HR PCP:  0.01;

PINE BELT      CLOUDY    75 N/A N/A W7        29.82F
6HR MIN TEMP:  72; 6HR MAX TEMP:  81; 6HR PCP:  0.01;

$$

MSZ080>082-251900-
COASTAL MISSISSIPPI

CITY           SKY/WX    TMP DP  RH WIND       PRES   REMARKS
BAY ST LOUIS   PTSUNNY   81  72  74 MISG      29.78S THUNDER
BILOXI         CLOUDY    81  75  83 W9        29.79S
6HR MIN TEMP:  76; 6HR MAX TEMP:  84;

PASCAGOULA     CLOUDY    81  75  82 SW9       29.80R
6HR MIN TEMP:  76; 6HR MAX TEMP:  83;

GULFPORT       CLOUDY    81  73  76 W9G16     29.79R
6HR MIN TEMP:  76; 6HR MAX TEMP:  83;

$$


USA.gov is the U.S. government's official web portal to all federal, state and local government web resources and services.